Theta_e
354 356 354 354 363 354 355 354 347 345 345 345 340 343 347 346 351 354 340 340 342 344 345 336 336 337 337 337 341 340 338 336 336 335 338 341 339 335 342 341 339 340 342 344 343 336 342 332 338
358 355 356 354 357 350 357 350 348 347 346 344 344 348 348 353 349 343 340 341 343 344 343 343 335 335 338 339 339 340 340 337 335 334 336 340 339 338 339 339 340 343 344 338 344 336 328 336 339
358 357 356 358 355 356 356 350 349 347 344 344 349 350 351 353 346 340 339 341 343 344 344 341 340 338 335 335 337 338 337 337 337 335 337 341 340 338 343 340 342 340 340 330 327 335 340 341 341
354 355 356 356 355 355 354 352 349 348 344 344 349 350 349 349 342 342 340 342 343 345 346 339 340 340 336 335 334 335 339 341 341 337 338 342 341 340 338 341 340 343 342 333 339 340 338 340 342
354 350 354 355 356 354 352 349 349 348 346 346 344 348 350 348 344 341 341 343 343 345 348 343 339 337 337 333 341 337 338 340 339 338 340 343 336 341 342 343 339 337 341 332 339 340 343 341 341
357 353 351 354 354 353 351 349 350 348 347 343 344 348 349 345 342 342 342 342 344 347 348 347 338 340 335 332 339 338 337 336 337 343 342 336 331 341 341 343 335 338 339 343 343 342 340 339 335
355 351 350 348 352 354 353 350 350 349 345 341 342 345 347 343 342 342 342 343 346 348 348 349 349 341 333 331 331 337 332 339 338 337 340 336 331 336 342 342 337 341 340 342 344 342 340 337 338
356 351 351 351 351 356 352 351 350 349 346 345 346 344 347 345 343 343 344 345 347 348 348 348 348 348 346 340 337 340 335 342 340 340 340 343 338 333 341 341 340 341 343 344 344 343 343 342 339
354 348 347 348 349 354 351 353 351 351 347 350 351 344 344 345 344 345 346 347 348 348 348 347 347 347 348 349 344 341 339 343 342 343 340 343 344 347 349 344 342 339 343 342 343 343 341 342 341
352 348 350 349 347 352 351 351 351 351 349 352 352 348 346 344 345 345 346 347 347 348 348 347 347 345 349 348 349 351 348 349 347 350 347 345 345 349 349 344 338 342 342 342 341 342 342 348 342
348 350 350 348 347 350 349 350 351 349 350 351 352 349 346 345 344 344 345 345 345 347 347 348 347 347 348 348 349 348 346 350 346 348 349 346 347 347 349 348 344 346 345 348 348 348 350 349 351
345 345 350 348 348 348 349 349 351 350 348 349 351 347 346 345 344 342 342 343 344 346 347 347 347 346 348 348 348 348 349 348 347 345 347 350 350 348 347 349 349 348 346 346 347 347 349 349 344
338 341 347 348 348 349 349 349 350 352 350 350 351 348 345 344 345 344 343 344 345 346 347 347 347 341 347 347 348 348 347 348 350 350 349 349 349 348 347 340 345 348 346 346 343 339 340 345 345
335 343 347 348 348 347 348 347 348 351 350 351 352 348 343 345 346 346 345 346 347 347 346 346 347 337 345 346 346 347 346 347 348 350 351 348 349 347 349 348 348 349 347 347 341 334 333 334 335
335 341 347 347 348 348 345 348 351 352 351 351 352 349 346 348 348 348 348 348 348 348 347 347 347 346 340 346 338 345 345 347 348 349 342 345 346 347 346 347 348 348 348 348 343 342 346 343 341
335 338 340 345 347 347 347 349 352 352 351 350 350 350 348 349 349 350 350 350 349 348 348 348 346 346 344 345 343 345 344 347 349 349 349 342 342 344 339 345 347 348 347 346 344 346 344 344 343
335 337 337 337 345 347 348 347 349 351 352 348 349 350 348 350 350 350 350 351 350 350 349 348 347 346 346 345 347 345 347 349 350 351 351 345 344 345 347 349 347 345 347 348 348 348 346 345 345
334 334 334 332 337 344 344 342 350 351 352 353 348 348 348 349 350 350 350 351 351 352 352 344 341 346 342 346 343 347 347 349 350 350 351 349 349 344 345 352 346 347 349 348 350 347 346 346 346
331 332 333 331 336 339 337 337 337 348 351 352 352 348 348 348 348 350 351 351 352 353 353 342 338 337 335 342 348 348 349 349 350 352 353 349 349 346 346 351 349 345 348 347 347 346 348 348 345
330 334 333 330 329 334 334 331 333 339 348 350 353 352 350 348 347 349 350 351 352 353 353 348 342 342 337 342 349 350 351 350 351 352 352 347 348 348 346 347 350 346 350 346 346 345 346 349 346
331 331 329 329 328 330 329 330 334 336 340 346 349 351 352 351 348 348 349 350 351 352 354 349 346 345 343 341 345 351 354 353 353 353 353 350 347 347 347 347 348 351 345 345 345 347 348 346 345
333 327 327 327 328 328 328 331 334 333 335 345 346 348 350 351 352 351 349 349 351 352 354 351 347 347 345 343 347 347 352 353 352 351 351 354 353 347 346 346 345 345 351 351 351 350 348 348 348
331 327 327 327 328 327 330 330 332 333 334 335 335 341 346 348 349 351 351 350 349 351 352 354 349 347 347 347 346 347 349 352 354 354 354 354 354 346 346 346 345 345 346 350 345 351 348 347 348
326 328 328 328 328 329 329 329 332 332 334 339 342 342 339 338 347 349 350 350 351 351 352 353 350 346 346 347 347 347 350 350 353 355 354 354 353 353 348 347 346 346 349 347 346 346 348 347 349
328 329 330 330 330 331 329 330 331 331 334 341 347 348 347 342 342 347 349 350 351 351 351 353 350 345 345 345 345 346 347 348 349 350 353 354 352 351 352 351 346 350 346 346 346 348 346 349 349
329 329 329 331 329 329 329 331 333 333 343 348 349 349 342 339 339 345 347 350 351 352 351 353 353 346 345 345 345 345 346 348 353 354 354 354 353 351 352 353 350 345 345 345 345 347 351 353 352
328 329 328 329 329 329 329 331 334 338 346 350 350 351 350 344 341 346 348 349 351 353 353 351 354 352 346 346 346 346 346 346 352 352 355 354 353 353 351 353 353 348 345 346 346 347 350 349 353
328 328 329 330 332 331 331 332 333 341 346 349 353 353 354 354 353 352 351 352 352 353 354 354 355 354 350 350 353 352 348 346 346 347 349 352 352 351 349 349 346 345 347 347 347 349 346 348 351
332 332 330 329 330 330 330 332 334 343 347 347 348 353 355 356 356 355 355 355 356 355 355 356 356 355 351 349 347 350 355 349 346 346 347 347 349 350 351 350 349 347 348 347 347 347 350 352 348
332 332 331 333 334 333 331 332 338 343 347 345 346 350 353 354 354 356 357 358 357 357 357 357 356 355 351 349 350 350 349 347 354 348 349 348 348 350 351 352 351 349 349 351 351 348 350 348 347
Wind_Speed
5 6 4 2 4 2 8 5 10 13 10 4 15 3 8 6 8 5 19 16 21 18 15 13 12 11 12 12 11 11 11 13 13 13 12 9 9 12 10 11 12 11 11 12 11 13 14 16 17
8 6 2 4 3 10 6 8 13 8 9 15 8 5 2 9 10 17 21 21 20 18 15 13 13 12 11 11 11 10 11 10 11 10 9 9 10 10 12 12 12 13 12 12 14 14 17 19 18
8 5 3 4 3 9 9 8 9 9 12 15 5 3 3 5 10 20 19 23 20 17 14 13 11 11 11 10 10 10 9 7 6 8 9 9 10 11 11 12 12 12 11 13 15 18 17 16 15
4 2 5 3 12 7 11 9 10 11 12 5 5 8 8 6 17 14 24 22 19 17 14 13 11 10 9 9 9 10 10 6 8 10 9 9 9 10 11 11 11 12 12 15 16 16 16 14 13
3 3 2 6 12 9 10 10 9 10 8 6 4 7 9 9 12 23 23 20 17 16 13 12 11 10 9 9 9 10 11 10 15 12 9 8 9 9 10 11 9 11 11 15 15 14 13 13 12
4 5 5 10 12 8 8 7 5 8 9 9 16 16 9 13 21 22 21 18 16 15 12 11 11 10 8 8 9 10 10 10 12 11 9 7 9 9 10 10 11 12 13 12 11 11 10 11 10
3 4 10 10 10 8 6 5 6 10 9 11 10 14 11 16 20 20 19 17 16 13 13 11 9 9 8 8 9 9 10 9 9 7 7 9 10 10 10 10 10 10 10 10 9 10 11 11 10
1 1 6 4 7 9 6 7 9 9 11 14 7 8 14 20 21 20 18 17 15 13 12 12 9 8 8 7 9 10 10 9 9 9 8 9 9 9 9 9 8 8 9 9 9 12 10 10 10
3 4 9 8 4 8 8 10 7 6 16 6 4 11 22 24 21 20 18 17 15 14 12 11 9 8 8 7 7 9 10 9 11 10 10 10 6 8 7 9 7 8 7 8 10 10 8 8 8
4 8 10 5 6 10 8 6 10 8 13 11 13 17 26 26 23 22 19 17 15 14 13 11 10 8 7 8 7 8 8 8 11 10 10 9 9 9 8 7 6 6 6 6 8 8 9 10 5
5 8 5 5 7 12 9 8 7 9 8 12 17 24 26 25 23 21 18 16 15 14 13 12 10 11 8 9 9 8 6 5 10 11 10 7 7 8 7 5 9 4 6 4 5 5 5 6 5
5 8 3 6 6 8 7 9 7 5 5 12 18 23 26 25 23 21 19 17 16 15 13 12 11 10 9 8 10 8 7 6 3 11 10 9 7 9 11 10 7 8 4 6 6 4 5 4 5
11 7 4 6 6 6 7 7 4 7 6 15 20 22 24 23 20 18 17 16 16 15 14 13 12 11 10 11 10 10 8 9 7 9 9 8 7 6 6 5 5 5 5 4 4 5 4 4 2
10 5 6 6 6 6 3 4 7 4 12 18 20 21 22 21 20 18 17 17 16 15 14 14 13 12 10 9 10 9 9 9 9 8 8 8 7 7 7 6 5 5 4 5 7 5 4 3 4
6 4 8 4 6 4 3 5 3 13 15 19 19 20 20 19 19 19 17 16 16 15 15 15 14 12 12 10 9 9 9 8 8 9 8 9 8 6 7 7 7 6 6 6 5 4 3 5 5
3 4 6 7 5 4 6 8 7 14 16 18 19 22 22 22 21 18 16 15 15 15 16 16 14 13 12 11 10 9 9 9 9 9 8 8 8 7 6 6 7 7 6 6 7 6 6 5 5
5 9 8 8 2 1 3 7 8 14 15 16 18 20 22 22 21 19 18 16 15 15 15 16 16 14 14 13 11 10 10 10 10 10 9 10 8 7 6 6 7 9 7 7 7 8 8 4 6
4 5 7 10 7 2 3 1 10 14 15 17 21 21 22 24 24 23 21 19 17 16 15 15 15 15 15 12 13 11 10 10 10 10 10 11 9 8 7 7 8 7 9 10 9 9 7 6 6
2 2 3 5 6 6 7 8 2 14 16 17 19 21 24 24 23 24 23 22 20 19 18 17 17 17 17 16 13 12 12 11 11 11 12 12 10 8 7 8 9 9 10 11 11 9 9 8 7
2 3 2 3 3 4 6 13 7 9 18 19 19 22 24 24 25 25 25 24 23 22 21 21 20 18 19 17 14 12 12 11 11 11 13 13 12 11 9 9 9 10 10 12 11 11 9 8 8
4 7 7 6 5 6 5 12 10 5 10 13 18 20 22 23 26 28 28 27 25 24 24 24 23 22 20 20 18 15 12 13 13 14 13 14 14 13 12 11 10 9 9 10 10 10 11 10 11
8 3 4 8 8 5 2 2 6 3 5 8 12 19 22 25 26 27 29 30 29 27 24 25 26 25 25 23 20 21 16 14 13 13 13 13 14 16 14 13 12 10 8 9 8 8 9 9 9
5 3 6 9 9 7 7 6 8 4 3 4 4 11 19 24 28 29 29 29 29 27 26 24 26 28 27 28 25 22 21 15 12 12 13 14 13 15 17 16 14 13 11 11 8 10 9 10 9
1 10 8 5 5 5 6 8 7 6 10 11 8 6 12 20 26 28 28 26 25 25 25 25 27 27 28 30 30 30 25 21 16 14 11 11 12 13 17 18 18 16 15 14 12 10 11 10 11
9 13 2 3 4 6 4 7 8 7 12 12 13 9 10 15 23 26 29 28 26 26 28 26 26 26 25 26 29 30 30 28 24 22 15 12 13 13 15 19 19 17 16 16 14 13 12 12 12
2 8 4 2 4 3 3 3 6 8 11 11 9 9 3 9 16 20 24 25 24 25 18 17 23 25 24 22 22 25 28 28 23 21 18 15 13 13 14 17 17 18 17 16 16 16 14 14 14
7 2 7 7 4 5 3 2 10 10 10 13 13 12 11 10 10 13 16 18 19 19 24 27 24 21 24 24 22 22 23 25 23 22 19 17 19 14 16 17 17 17 18 18 18 17 17 17 15
6 3 6 2 3 5 5 3 6 10 11 12 14 13 13 11 9 9 12 13 13 14 14 20 21 20 21 25 23 22 22 22 23 26 25 21 19 18 18 21 20 19 20 20 20 18 18 19 16
5 6 1 4 4 5 4 5 7 6 8 10 13 13 11 11 9 9 10 10 9 9 9 11 14 17 22 26 27 21 17 16 17 21 25 25 23 20 19 21 22 23 22 21 21 21 19 20 18
3 3 5 5 1 2 6 9 6 5 6 9 11 12 11 10 8 7 8 9 10 9 8 9 10 12 15 19 21 20 13 16 16 18 21 24 23 22 22 22 25 25 24 23 24 24 22 23 20
Wind_Direction
118 127 151 189 227 198 73 79 115 121 135 84 140 98 62 32 10 65 142 143 147 146 150 142 133 122 119 124 118 122 128 133 133 132 126 104 91 115 107 109 113 115 121 113 113 109 112 118 119
166 161 209 273 270 90 81 111 117 120 124 138 138 113 104 79 56 124 142 147 144 144 146 144 136 128 119 117 113 117 125 132 136 138 125 98 99 103 109 107 114 117 114 117 113 115 112 113 114
162 182 241 267 44 65 101 115 113 111 141 147 115 57 67 56 112 133 148 145 143 141 142 151 138 132 124 118 112 111 116 127 140 151 123 103 98 112 104 113 114 113 109 110 115 112 114 116 115
156 209 248 80 96 62 93 98 124 127 156 181 121 94 91 82 132 141 144 144 144 141 145 145 142 133 124 122 115 110 106 99 151 151 139 113 106 114 116 114 116 110 106 112 107 111 111 114 111
186 237 124 93 89 96 97 108 123 132 132 145 163 110 99 124 135 142 145 145 147 143 145 144 139 136 128 120 110 110 107 98 112 132 130 121 110 114 112 111 110 120 120 118 118 111 106 106 113
207 256 104 91 89 94 105 118 100 121 111 107 116 108 92 129 139 145 147 147 147 143 140 153 144 140 135 129 124 116 118 120 122 117 118 110 125 112 112 106 108 110 116 115 113 110 103 105 109
325 57 69 83 93 96 108 138 139 119 120 119 129 112 127 141 149 149 149 150 148 145 148 140 144 149 140 131 126 121 128 136 148 136 126 109 121 128 118 115 117 112 112 108 111 113 106 108 105
295 161 116 81 81 96 116 134 132 116 100 121 118 146 156 157 153 152 153 153 151 151 147 149 150 147 138 134 133 128 133 132 140 149 140 123 127 130 118 111 125 118 120 108 113 106 110 108 102
251 103 84 86 97 122 141 126 133 114 140 104 70 141 157 157 155 156 157 159 160 156 156 152 153 150 139 143 150 134 139 136 143 145 140 114 131 111 107 137 119 133 127 111 122 115 97 97 108
313 70 59 40 91 128 147 131 142 149 144 125 99 126 148 155 162 164 165 168 167 165 161 164 157 147 143 143 148 141 147 144 139 148 140 138 138 150 147 125 126 125 137 132 106 105 90 83 106
39 49 80 86 93 134 125 132 142 140 176 160 144 146 155 162 169 173 172 173 172 170 170 170 167 153 149 157 149 150 139 148 153 156 141 164 140 135 136 128 119 108 104 97 91 81 98 108 112
58 61 70 118 124 148 130 133 154 141 97 154 159 157 161 168 173 177 177 176 175 178 176 172 177 166 160 154 148 162 149 153 175 156 157 158 144 163 179 151 143 120 135 164 148 140 148 104 104
28 38 91 114 136 140 136 133 109 154 120 146 154 160 166 171 174 176 177 181 180 183 183 180 183 178 171 155 163 160 165 148 167 158 169 161 170 163 151 197 133 142 148 156 144 168 157 147 150
351 45 109 148 141 148 164 137 171 153 139 150 160 166 169 171 174 177 181 184 186 186 189 187 189 191 178 170 169 169 165 165 167 172 191 174 170 171 171 178 179 177 167 177 182 154 174 192 240
344 97 140 111 162 124 199 162 140 145 150 157 166 170 172 175 180 186 186 187 186 190 191 193 192 196 191 185 180 176 176 175 172 175 182 183 175 193 176 180 185 194 195 185 190 191 212 280 250
289 205 107 65 166 119 243 101 140 156 162 164 168 173 177 182 186 189 190 192 191 189 195 193 196 199 200 193 192 183 182 182 179 179 180 177 175 181 184 192 191 205 204 205 211 221 257 275 232
29 75 66 92 77 80 274 98 149 179 177 170 174 180 184 186 191 194 195 195 196 195 198 198 198 198 204 202 195 191 194 185 188 192 191 202 196 196 193 193 204 207 213 226 225 226 256 256 242
24 63 78 47 38 339 289 313 144 186 190 182 181 185 191 195 196 196 198 199 198 200 201 205 205 202 204 205 202 198 196 195 194 195 195 207 202 212 215 229 215 216 217 221 230 242 249 259 260
351 73 48 74 32 313 356 320 137 183 198 204 189 191 196 199 197 199 201 203 203 205 205 210 209 208 207 205 203 203 204 206 207 206 209 209 207 215 225 225 242 239 242 250 258 268 260 257 271
201 258 58 135 26 296 340 309 323 186 205 204 199 202 202 202 198 199 202 202 206 209 210 213 214 213 211 209 204 205 211 218 220 223 225 219 224 229 232 235 239 249 240 254 258 262 265 263 278
193 357 5 346 314 227 283 263 253 191 211 209 210 207 213 206 205 206 205 204 206 210 213 215 216 219 216 213 213 214 215 216 226 228 232 233 233 238 240 242 232 244 256 264 263 258 256 264 273
293 51 326 320 306 315 344 352 105 270 229 191 213 215 211 212 209 209 210 211 211 212 213 217 219 221 224 222 217 221 218 224 232 236 241 237 248 243 241 243 247 250 245 246 258 257 255 260 265
20 329 319 308 279 260 158 255 102 91 79 14 220 219 223 219 213 210 211 212 212 212 211 213 220 224 226 230 226 230 230 233 234 241 238 248 247 252 243 244 246 252 256 260 254 246 257 264 264
237 267 237 229 244 213 69 313 120 34 350 331 330 281 253 227 217 213 213 212 212 210 210 212 221 227 229 234 235 236 235 232 230 237 245 251 253 256 249 246 250 251 253 257 263 268 260 258 257
239 247 261 237 195 59 44 277 48 18 356 334 329 317 275 223 210 207 208 209 210 209 209 208 215 225 231 234 237 239 240 240 242 243 244 245 250 254 251 257 255 254 257 254 260 262 264 266 262
6 325 7 332 358 39 135 358 74 5 359 353 352 356 357 187 199 201 203 206 209 212 204 236 227 219 224 230 236 241 240 239 242 244 243 244 244 248 254 256 256 258 254 257 259 260 259 255 263
134 248 9 295 174 250 59 32 134 35 33 22 26 40 65 92 146 177 192 198 209 208 201 216 220 222 222 225 226 233 238 241 236 240 243 249 246 248 252 253 251 254 253 253 254 258 256 260 263
335 50 254 175 310 318 102 212 26 11 23 23 36 39 56 77 104 138 160 178 196 209 206 205 216 225 225 222 225 225 227 236 243 244 249 246 246 258 259 259 257 250 253 250 254 253 258 262 265
165 187 127 296 314 320 296 77 52 10 7 13 34 36 44 65 82 112 132 153 171 180 193 206 217 225 228 229 228 229 224 234 241 246 250 254 255 257 260 257 255 252 253 252 252 253 251 258 267
315 57 285 322 76 183 302 298 77 18 3 14 32 38 41 54 73 98 123 143 146 154 171 191 209 226 243 235 225 224 237 244 235 244 250 252 255 253 253 257 255 253 252 251 252 255 253 263 266